2002  2 11  00 00 00   04 57 28.6   +18 05 36     2.21521   2.755   18.3 

2002  2 12  00 00 00   04 57 54.6   +18 10 01     2.23368   2.761   18.4 

2002  2 13  00 00 00   04 58 22.0   +18 14 24     2.25224   2.767   18.4 

2002  2 14  00 00 00   04 58 50.6   +18 18 46     2.27088   2.773   18.4 

2002  2 15  00 00 00   04 59 20.5   +18 23 07     2.28961   2.779   18.5 

2002  2 16  00 00 00   04 59 51.6   +18 27 27     2.30842   2.785   18.5 

2002  2 17  00 00 00   05 00 24.0   +18 31 45     2.32730   2.791   18.5 

2002  2 18  00 00 00   05 00 57.6   +18 36 02     2.34625   2.797   18.6 

2002  2 19  00 00 00   05 01 32.4   +18 40 17     2.36527   2.803   18.6 

2002  2 20  00 00 00   05 02 08.3   +18 44 31     2.38435   2.809   18.6 

2002  2 21  00 00 00   05 02 45.4   +18 48 43     2.40350   2.815   18.6 

2002  2 22  00 00 00   05 03 23.5   +18 52 53     2.42270   2.821   18.7 

2002  2 23  00 00 00   05 04 02.8   +18 57 02     2.44195   2.827   18.7 

2002  2 24  00 00 00   05 04 43.2   +19 01 09     2.46126   2.833   18.7 

2002  2 25  00 00 00   05 05 24.6   +19 05 14     2.48062   2.839   18.8 

2002  2 26  00 00 00   05 06 07.0   +19 09 17     2.50002   2.845   18.8 

2002  2 27  00 00 00   05 06 50.4   +19 13 18     2.51946   2.851   18.8 

2002  2 28  00 00 00   05 07 34.8   +19 17 17     2.53894   2.857   18.9 

2002  3  1  00 00 00   05 08 20.2   +19 21 14     2.55846   2.863   18.9 

2002  3  2  00 00 00   05 09 06.6   +19 25 09     2.57802   2.869   18.9 

2002  3  3  00 00 00   05 09 53.8   +19 29 02     2.59761   2.875   19.0 

2002  3  4  00 00 00   05 10 42.0   +19 32 52     2.61723   2.881   19.0 

2002  3  5  00 00 00   05 11 31.1   +19 36 41     2.63687   2.887   19.0 

NAKANO

         **** Don't distribute anyone except personal use only ****

                (C) Copyright 2002 OAA/ComputingSection

write mail from CFAD0::NAKANO on 2002-01-28 00:54:17(JST).

 



  51P/Harrington 

Epoch 2001 June 20.0 TT = JDT 2452080.5  

T 2001 June 5.74447 TT                                  Nakano

q   1.5681301            (2000.0)            P               Q

n   0.14555272     Peri.  233.60156     +0.98407039     +0.11974723

a   3.5792264      Node   119.18024     -0.07119470     +0.94271155

e   0.5618802      Incl.    8.65592     -0.16290113     +0.31137683

P   6.77

From 172 observations 1994-2001, mean residual 0.90.  Nongravitational

   parameters A1 = +1.58 +/- 0.07, A2 = +1.0132 +/- 0.0901.



NAKANO

         **** Don't distribute anyone except personal use only ****

                (C) Copyright 2001 OAA/ComputingSection

write mail from CFAD0::NAKANO on 2001-11-27 01:14:55(JST).

 

  51P/Harrington 

Epoch 2001 June 20.0 TT = JDT 2452080.5  

T 2001 June 5.75358 TT                                  Nakano

q   1.5681193            (2000.0)            P               Q

n   0.14558144     Peri.  233.60580     +0.98407972     +0.11966669

a   3.5787557      Node   119.18067     -0.07111700     +0.94271853

e   0.5618255      Incl.    8.65619     -0.16287869     +0.31138666

P   6.77

From 171 observations 1987-2001, mean residual 0".87.  Nongravitational

   parameters A1 = +0.65 +/- 0.05, A2 = -0.0871 +/- 0.0003.

 



NAKANO

         **** Don't distribute anyone except personal use only ****

                (C) Copyright 2001 OAA/ComputingSection

write mail from CFAD0::NAKANO on 2001-07-31 23:54:42(JST).



◎51Pの軌道と予報位置です

 上尾の門田健一氏は,この彗星の今期初めての観測を7月1日に行ない,

同4日にこれを確認しました.氏による CCD全光度は,それぞれ,15.1等,

14.9等でした.彗星は,コマが 20"ほどで,中央集光のある拡散状,西南

西の方向に1'〜2'の淡い尾が見られるとのことです.

 なお,彗星は,1994年に分列核A,B,C核が観測されています.氏の

観測は,A核のようです.彗星の位置は,NK678 の予報軌道から赤経方向

に +194",赤緯方向に+63"ほど離れていました.近日点通過への補正値は,

ΔT=-0.14日でした.予報では,C核は,A核からΔT=+0.86日の位置に

います.

 なお,1994年に報告された次のC核の観測は,A核のものです.

0051P      c  C1994 10 14.73125 02 17 17.05 -08 34 54.8          12.8 T 24135360

0051P      c  C1994 10 14.73750 02 17 16.87 -08 34 55.2                 24135360

0051P      c  C1994 10 30.53142 02 09 57.16 -08 07 21.5          13.3 T 24135360

0051P      c  C1994 10 30.53507 02 09 57.01 -08 07 20.7                 24135360

0051P      c  C1994 11 04.56790 02 07 46.99 -07 40 01.5          14.4 T 24135410

0051P      c  C1994 11 04.57015 02 07 46.94 -07 40 00.0                 24135410

0051P      c  C1994 11 07.30432 02 06 45.61 -07 21 43.6                 24135691

0051P      c  C1994 11 07.35868 02 06 44.30 -07 21 20.1                 24135691

0051P      c  C1994 11 08.18845 02 06 27.75 -07 15 19.9                 24254801

0051P      c  C1994 11 08.20869 02 06 27.29 -07 15 09.5                 24254801

0051P      c  C1994 11 08.63299 02 06 19.00 -07 11 59.7          13.7 T 24254360

0051P      c  C1994 11 08.63576 02 06 18.93 -07 11 58.5                 24254360

0051P      c  C1994 11 09.27740 02 06 06.85 -07 07 05.7          18.3 N 24135691

0051P      c  C1994 11 09.29428 02 06 06.49 -07 06 57.9          13.8 T 24135691

0051P      c  C1994 11 09.33152 02 06 05.66 -07 06 40.7          14.1 T 24135691

0051P      c  C1994 11 23.47905 02 04 06.72 -04 52 53.9          14.5 T 24254410

0051P      c  C1994 11 23.48145 02 04 06.62 -04 52 52.6                 24254410

0051P      c  C1994 11 23.50990 02 04 06.66 -04 52 34.6          14.4 T 24254360

0051P      c  C1994 11 23.51337 02 04 06.63 -04 52 33.0                 24254360

0051P      c  C1994 11 26.52082 02 04 20.74 -04 19 01.1          15.2 T 24254410

0051P      c  C1994 11 26.52361 02 04 20.79 -04 18 59.3                 24254410

0051P      c  C1994 11 26.52638 02 04 20.81 -04 18 58.0                 24254410

0051P      c  C1994 12 04.52467 02 06 08.50 -02 44 05.3          15.5 T 24254410

0051P      c  C1994 12 04.52755 02 06 08.51 -02 44 04.3                 24254410

0051P      c  C1994 12 04.53043 02 06 08.53 -02 44 02.4                 24254410



  51P/Harrington 

Epoch 2001 June 20.0 TT = JDT 2452080.5  

T 2001 June 5.75205 TT                                  Nakano

q   1.5681195            (2000.0)            P               Q

n   0.14558162     Peri.  233.60567     +0.98407936     +0.11966956

a   3.5787526      Node   119.18064     -0.07111970     +0.94271833

e   0.5618251      Incl.    8.65620     -0.16287974     +0.31138617

P   6.77

From 168 observations 1987-2001, mean residual 0".86.  Nongravitational

   parameters A1 = +0.66 +/- 0.05, A2 = -0.0883 +/- 0.0003.



 18h TT  R.A.(2000) Decl.    Delta   r      Mot./PA   Elong. Mag.  Astronomical

           h  m       。  ,                    ,     。    。    m1     Twilight

July  1  02 46.48  +08 50.2  1.870  1.591   40.9/ 77   58.3  14.4  +15.9  270.4

      2  02 49.17  +08 59.6  1.866  1.592   40.8/ 77   58.5  14.4  +16.4  270.6

      3  02 51.85  +09 08.8  1.862  1.594   40.6/ 77   58.8  14.4  +16.9  270.7

      4  02 54.52  +09 17.9  1.859  1.596   40.4/ 77   59.1  14.4  +17.3  270.9

      5  02 57.18  +09 26.9  1.855  1.598   40.2/ 77   59.4  14.4  +17.8  271.0

      6  02 59.84  +09 35.7  1.852  1.600   40.0/ 78   59.6  14.5  +18.3  271.2

      7  03 02.48  +09 44.3  1.848  1.602   39.9/ 78   59.9  14.5  +18.8  271.4

      8  03 05.12  +09 52.7  1.845  1.604   39.7/ 78   60.2  14.5  +19.3  271.5

      9  03 07.74  +10 01.0  1.841  1.606   39.5/ 78   60.5  14.5  +19.8  271.7

     10  03 10.36  +10 09.2  1.838  1.609   39.3/ 78   60.8  14.5  +20.4  271.9

     11  03 12.96  +10 17.1  1.834  1.611   39.1/ 78   61.1  14.5  +20.9  272.1

     12  03 15.56  +10 24.9  1.831  1.613   38.9/ 79   61.4  14.5  +21.4  272.4

     13  03 18.14  +10 32.6  1.827  1.616   38.7/ 79   61.7  14.6  +21.9  272.6

     14  03 20.72  +10 40.0  1.824  1.618   38.5/ 79   62.0  14.6  +22.5  272.8

     15  03 23.28  +10 47.3  1.820  1.621   38.3/ 79   62.3  14.6  +23.0  273.0

     16  03 25.83  +10 54.5  1.817  1.623   38.1/ 79   62.6  14.6  +23.6  273.3

     17  03 28.37  +11 01.4  1.813  1.626   37.8/ 80   62.9  14.6  +24.1  273.5

     18  03 30.90  +11 08.2  1.810  1.629   37.6/ 80   63.3  14.6  +24.7  273.8

     19  03 33.42  +11 14.9  1.806  1.631   37.4/ 80   63.6  14.7  +25.2  274.1

     20  03 35.92  +11 21.3  1.803  1.634   37.2/ 80   63.9  14.7  +25.8  274.4

     21  03 38.41  +11 27.7  1.799  1.637   36.9/ 80   64.2  14.7  +26.3  274.6

     22  03 40.89  +11 33.8  1.796  1.640   36.7/ 81   64.6  14.7  +26.9  274.9

     23  03 43.35  +11 39.8  1.792  1.643   36.5/ 81   64.9  14.7  +27.5  275.2

     24  03 45.80  +11 45.6  1.789  1.646   36.2/ 81   65.2  14.8  +28.1  275.5

     25  03 48.24  +11 51.2  1.785  1.649   36.0/ 81   65.6  14.8  +28.6  275.9

     26  03 50.66  +11 56.7  1.782  1.652   35.7/ 81   65.9  14.8  +29.2  276.2

     27  03 53.07  +12 02.0  1.778  1.656   35.5/ 82   66.3  14.8  +29.8  276.5

     28  03 55.47  +12 07.1  1.774  1.659   35.2/ 82   66.7  14.8  +30.4  276.9

     29  03 57.85  +12 12.1  1.771  1.662   35.0/ 82   67.0  14.9  +31.0  277.2

     30  04 00.21  +12 16.9  1.767  1.665   34.7/ 82   67.4  14.9  +31.6  277.6

     31  04 02.56  +12 21.6  1.764  1.669   34.5/ 82   67.7  14.9  +32.2  277.9

Aug.  1  04 04.89  +12 26.1  1.760  1.672   34.2/ 83   68.1  14.9  +32.8  278.3

      2  04 07.21  +12 30.5  1.756  1.676   34.0/ 83   68.5  14.9  +33.4  278.7

      3  04 09.51  +12 34.7  1.753  1.679   33.7/ 83   68.9  15.0  +34.0  279.1

      4  04 11.80  +12 38.7  1.749  1.683   33.4/ 83   69.3  15.0  +34.6  279.5

      5  04 14.07  +12 42.6  1.745  1.687   33.2/ 83   69.7  15.0  +35.2  279.9

      6  04 16.32  +12 46.4  1.741  1.690   32.9/ 84   70.1  15.0  +35.8  280.3

      7  04 18.56  +12 50.0  1.738  1.694   32.6/ 84   70.5  15.1  +36.4  280.7

      8  04 20.78  +12 53.4  1.734  1.698   32.4/ 84   70.9  15.1  +37.0  281.2

      9  04 22.98  +12 56.7  1.730  1.702   32.1/ 84   71.3  15.1  +37.6  281.6

     10  04 25.16  +12 59.8  1.726  1.705   31.8/ 85   71.7  15.1  +38.2  282.1

     11  04 27.33  +13 02.8  1.722  1.709   31.5/ 85   72.1  15.2  +38.8  282.6

     12  04 29.48  +13 05.7  1.719  1.713   31.2/ 85   72.5  15.2  +39.4  283.0

